Domov               UVHVVR             MKGP            O straneh              
ZDRAVSTVENO VARSTVO RASTLIN
  MREŽA AGROMET. POSTAJ
 ► PROGNOSTIČNA OBVESTILA
AGROMETEOROLOŠKI PODATKI -
ARSO
OBVLADOVANJE TVEGANJ ZARADI
NEUGODNIH VREMENSKIH RAZMER
  ► NARAVNE NESREČE
  ► SUŠA/MOČA
  ► NAMAKANJE
  ► ŽLED (gozdarstvo)
KARTOGRAFSKI PRIKAZI
SPLETNE POVEZAVE
PROJEKTI IN PUBLIKACIJE

AGROMETEOROLOŠKA MREŽA: VREMENSKE POSTAJE IN FENOLOŠKA OPAZOVANJA

Pregled podatkov za lokacijo Veržej, meteorološka postaja 37883

Pregled senzorjev na lokaciji

ID Ime Zadnja
vrednost
Datum
zadnje
spremembe
Tip
senzorja
3787 Padavine (mm) 0 mm 14.12.2017 06:30 Rain-O-Matic
3789 Relativna vlaga 2 m (% RH) 77,95 % RH 14.12.2017 06:30 50YA
3793 Temperatura 2 m (°C) 4,93 °C 14.12.2017 06:30 50YA

Pregled podatkov zadnjih 24 ur

Zap.
št.
Datum in čas Veržej
Padavine Relativna
vlaga
2
m
Temperatura
2
m
0 14.12.2017 06:30 0 77,95 4,93
1 14.12.2017 06:00 0 80,02 4,59
2 14.12.2017 05:30 0 80,49 4,27
3 14.12.2017 05:00 0 81,59 3,81
4 14.12.2017 04:30 0 81,49 3,76
5 14.12.2017 04:00 0 82,37 3,47
6 14.12.2017 03:30 0 85,52 2,66
7 14.12.2017 03:00 0 87,57 2,08
8 14.12.2017 02:30 0 90,89 0,98
9 14.12.2017 02:00 0 88,84 1,56
10 14.12.2017 01:30 0 90,94 1,07
11 14.12.2017 01:00 0 92,6 0,51
12 14.12.2017 00:30 0 92,43 0,63
13 14.12.2017 00:00 0 91,92 0,66
14 13.12.2017 23:30 0 90,13 0,95
15 13.12.2017 23:00 0 87,59 1,54
16 13.12.2017 22:30 0 87,62 1,61
17 13.12.2017 22:00 0 88,55 1,54
18 13.12.2017 21:30 0 87,37 1,78
19 13.12.2017 21:00 0 89,11 1,73
20 13.12.2017 20:30 0 91,7 1,61
21 13.12.2017 20:00 0 97,36 1,59
22 13.12.2017 19:30 0 99,93 0,81
23 13.12.2017 19:00 0 99,93 0,46
24 13.12.2017 18:30 0 99,71 0,46
25 13.12.2017 18:00 0 98,68 0,76
26 13.12.2017 17:30 0 97,44 1,22
27 13.12.2017 17:00 0 94,24 1,78
28 13.12.2017 16:30 0 91,09 2,56
29 13.12.2017 16:00 0 88,69 3
30 13.12.2017 15:30 0 84,96 3,93
31 13.12.2017 15:00 0 83,39 4,1
32 13.12.2017 14:30 0 82,56 4,22
33 13.12.2017 14:00 0 84,08 4,15
34 13.12.2017 13:30 0 84,44 4,3
35 13.12.2017 13:00 0 86,42 3,98
36 13.12.2017 12:30 0 88,52 3,39
37 13.12.2017 12:00 0 91,09 2,91
38 13.12.2017 11:30 0 91,87 2,47
39 13.12.2017 11:00 0 93,7 2,15
40 13.12.2017 10:30 0,2 97,73 1,61
41 13.12.2017 10:00 0 99,24 1,22
42 13.12.2017 09:30 0,2 99,93 0,88
43 13.12.2017 09:00 0,2 99,93 0,63
44 13.12.2017 08:30 0,2 99,9 0,71
45 13.12.2017 08:00 0,2 99,88 0,66
46 13.12.2017 07:30 0,2 99,93 0,54
© 2011 Ministrstvo za kmetijstvo, gozdarstvo in prehrano. Vse pravice pridržane.